Date String (YYYY-MM-DD hh:mm:ss) UTC,Instrument flags,Ambient pressure (hPa),Sample flow (lpm),Bypass flow (lpm),Sample temperature (°C),Ambient temperature (°C),ASC tube jacket temperature (°C),LED temperature (°C),Box temperature (°C),Sample RH (%),Span deviation,Mass concentration (μg/m³),Mass concentration (μg/m³),Mass concentration (μg/m³)
DateTimeUTC,F1_M11,P_M11,Q1_M11,Q2_M11,T1_M11,T2_M11,T3_M11,T4_M11,T5_M11,U1_M11,ZSPAN_M11,X0_M11,X2_M11,X1_M11
2022-07-21 09:00:00,,0828.6,4.99,0.00,29.7,28.5,00.0,38.5,31.7,26.6,0000.0,0013.41,0006.36,0004.75
2022-07-21 09:01:00,,0829.1,5.00,0.00,29.7,28.6,00.0,38.5,31.7,26.5,0000.0,0013.53,0006.34,0004.74
2022-07-21 09:02:00,,0829.0,5.00,0.00,29.8,28.7,00.0,38.5,31.7,26.8,0000.0,0013.76,0006.33,0004.75
2022-07-21 09:03:00,,0828.8,4.99,0.00,29.8,28.7,00.0,38.5,31.7,26.3,0000.0,0013.15,0006.31,0004.76
2022-07-21 09:04:00,,0828.7,5.01,0.00,29.8,28.8,00.0,38.5,31.8,26.4,0000.0,0013.32,0006.29,0004.78
2022-07-21 09:05:00,,0828.5,5.00,0.00,29.8,28.8,00.0,38.6,31.8,26.0,0000.0,0013.58,0006.39,0004.81
2022-07-21 09:06:00,,0828.5,4.98,0.00,29.9,28.7,00.0,38.6,31.8,25.5,0000.0,0014.41,0006.44,0004.82
2022-07-21 09:07:00,,0828.4,5.00,0.00,29.9,28.0,00.0,38.5,31.7,25.6,0000.0,0015.45,0006.47,0004.83
2022-07-21 09:08:00,,0828.4,5.01,0.00,29.8,27.5,00.0,38.5,31.6,26.6,0000.0,0015.58,0006.50,0004.84
2022-07-21 09:09:00,,0828.2,5.00,0.00,29.8,27.3,00.0,38.5,31.5,28.0,0000.0,0016.52,0006.55,0004.86
2022-07-21 09:10:00,,0828.2,5.01,0.00,29.7,27.4,00.0,38.4,31.4,28.3,0000.0,0016.93,0006.56,0004.87
2022-07-21 09:11:00,,0828.2,5.01,0.00,29.6,27.5,00.0,38.4,31.4,28.4,0000.0,0016.96,0006.61,0004.91
2022-07-21 09:12:00,,0828.2,5.00,0.00,29.6,27.6,00.0,38.4,31.4,28.8,0000.0,0016.55,0006.64,0004.92
2022-07-21 09:13:00,,0828.2,5.00,0.00,29.6,27.7,00.0,38.4,31.4,28.8,0000.0,0016.67,0006.62,0004.91
2022-07-21 09:14:00,,0828.2,5.00,0.00,29.6,27.8,00.0,38.4,31.4,28.1,0000.0,0016.74,0006.60,0004.92
2022-07-21 09:15:00,,0828.3,5.00,0.00,29.6,28.0,00.0,38.4,31.4,27.7,0000.0,0016.29,0006.58,0004.92
2022-07-21 09:16:00,,0828.3,5.00,0.00,29.6,28.1,00.0,38.4,31.5,27.7,0000.0,0016.01,0006.49,0004.92
2022-07-21 09:17:00,,0828.4,5.00,0.00,29.6,28.2,00.0,38.4,31.5,27.2,0000.0,0015.12,0006.48,0004.92
2022-07-21 09:18:00,,0828.5,4.99,0.00,29.6,28.3,00.0,38.4,31.5,27.3,0000.0,0014.29,0006.48,0004.93
2022-07-21 09:19:00,,0828.5,5.00,0.00,29.6,28.3,00.0,38.4,31.6,27.4,0000.0,0014.32,0006.47,0004.94
2022-07-21 09:20:00,,0828.8,5.00,0.00,29.7,28.4,00.0,38.5,31.6,27.5,0000.0,0013.52,0006.44,0004.93
2022-07-21 09:21:00,,0828.9,5.00,0.00,29.7,28.5,00.0,38.5,31.6,27.6,0000.0,0013.20,0006.41,0004.92
2022-07-21 09:22:00,,0828.9,5.00,0.00,29.7,28.5,00.0,38.5,31.7,27.5,0000.0,0012.85,0006.42,0004.92
2022-07-21 09:23:00,,0829.1,4.99,0.00,29.7,28.6,00.0,38.5,31.7,27.0,0000.0,0012.74,0006.37,0004.92
2022-07-21 09:24:00,,0828.8,5.00,0.00,29.8,28.6,00.0,38.5,31.7,26.6,0000.0,0012.56,0006.43,0004.91
2022-07-21 09:25:00,,0828.5,5.01,0.00,29.8,28.7,00.0,38.5,31.7,26.0,0000.0,0013.19,0006.50,0004.90
2022-07-21 09:26:00,,0828.5,4.99,0.00,29.8,28.7,00.0,38.5,31.7,25.7,0000.0,0014.34,0006.54,0004.89
2022-07-21 09:27:00,,0828.5,5.01,0.00,29.8,28.8,00.0,38.6,31.8,25.5,0000.0,0015.92,0006.53,0004.87
2022-07-21 09:28:00,,0828.5,4.99,0.00,29.8,28.8,00.0,38.6,31.7,25.4,0000.0,0016.76,0006.50,0004.86
2022-07-21 09:29:00,,0828.4,5.00,0.00,29.9,28.8,00.0,38.6,31.8,25.1,0000.0,0016.81,0006.52,0004.85
2022-07-21 09:30:00,,0828.6,5.01,0.00,29.9,28.9,00.0,38.6,31.9,24.5,0000.0,0017.26,0006.49,0004.83
2022-07-21 09:31:00,,0829.0,5.00,0.00,29.9,28.9,00.0,38.6,31.9,24.1,0000.0,0016.91,0006.38,0004.79
2022-07-21 09:32:00,,0829.1,5.00,0.00,30.0,28.9,00.0,38.7,31.9,24.3,0000.0,0016.91,0006.35,0004.75
2022-07-21 09:33:00,,0829.2,5.00,0.00,30.0,28.6,00.0,38.6,31.9,26.0,0000.0,0016.96,0006.27,0004.72
2022-07-21 09:34:00,,0829.2,4.99,0.00,30.0,27.8,00.0,38.6,31.8,25.7,0000.0,0017.40,0006.27,0004.71
2022-07-21 09:35:00,,0829.1,5.01,0.00,29.9,27.4,00.0,38.5,31.7,25.5,0000.0,0017.57,0006.29,0004.69
2022-07-21 09:36:00,,0828.8,4.99,0.00,29.8,27.4,00.0,38.6,31.5,24.4,0000.0,0017.01,0006.21,0004.66
2022-07-21 09:37:00,,0829.0,5.00,0.00,29.8,27.5,00.0,38.5,31.5,22.3,0000.0,0016.44,0006.14,0004.62
2022-07-21 09:38:00,,0829.1,5.00,0.00,29.7,27.6,00.0,38.5,31.5,21.8,0000.0,0014.95,0006.12,0004.58
2022-07-21 09:39:00,,0828.5,5.00,0.00,29.7,27.7,00.0,38.5,31.5,21.9,0000.0,0014.06,0006.09,0004.53
2022-07-21 09:40:00,,0828.5,5.00,0.00,29.7,27.9,00.0,38.5,31.5,22.0,0000.0,0014.05,0006.00,0004.49
2022-07-21 09:41:00,,0828.6,5.00,0.00,29.7,28.0,00.0,38.5,31.5,22.5,0000.0,0014.01,0005.99,0004.47
2022-07-21 09:42:00,,0828.9,4.99,0.00,29.7,28.1,00.0,38.5,31.5,23.7,0000.0,0014.71,0006.02,0004.46
2022-07-21 09:43:00,,0828.6,5.00,0.00,29.7,28.2,00.0,38.5,31.6,23.2,0000.0,0014.90,0006.06,0004.47
2022-07-21 09:44:00,,0829.0,5.00,0.00,29.7,28.3,00.0,38.5,31.6,21.4,0000.0,0014.56,0006.01,0004.43
2022-07-21 09:45:00,,0829.2,5.01,0.00,29.7,28.4,00.0,38.5,31.6,22.4,0000.0,0014.27,0006.00,0004.40
2022-07-21 09:46:00,,0829.2,4.99,0.00,29.8,28.5,00.0,38.5,31.7,21.5,0000.0,0013.90,0005.89,0004.37
2022-07-21 09:47:00,,0829.2,5.00,0.00,29.8,28.6,00.0,38.6,31.7,20.9,0000.0,0013.53,0005.84,0004.35
2022-07-21 09:48:00,,0829.2,5.01,0.00,29.8,28.6,00.0,38.6,31.8,20.8,0000.0,0013.10,0005.81,0004.34
2022-07-21 09:49:00,,0829.2,4.99,0.00,29.8,28.7,00.0,38.6,31.7,20.8,0000.0,0013.56,0005.77,0004.34
2022-07-21 09:50:00,,0828.9,5.02,0.00,29.8,28.7,00.0,38.6,31.8,20.7,0000.0,0013.90,0005.77,0004.35
2022-07-21 09:51:00,,0828.8,4.99,0.00,29.9,28.8,00.0,38.6,31.8,20.6,0000.0,0014.79,0005.75,0004.34
2022-07-21 09:52:00,,0828.7,5.00,0.00,29.9,28.8,00.0,38.6,31.9,20.6,0000.0,0014.81,0005.73,0004.32
2022-07-21 09:53:00,,0828.9,5.01,0.00,29.9,28.9,00.0,38.7,31.9,20.6,0000.0,0014.02,0005.68,0004.29
2022-07-21 09:54:00,,0828.7,4.99,0.00,29.9,28.9,00.0,38.7,31.9,20.7,0000.0,0013.60,0005.61,0004.27
2022-07-21 09:55:00,,0829.1,5.01,0.00,30.0,28.9,00.0,38.7,31.9,20.7,0000.0,0013.74,0005.64,0004.27
2022-07-21 09:56:00,,0829.1,5.01,0.00,30.0,28.9,00.0,38.7,32.0,20.8,0000.0,0013.92,0005.58,0004.25
2022-07-21 09:57:00,,0829.2,5.00,0.00,30.0,28.2,00.0,38.6,31.9,21.5,0000.0,0013.98,0005.57,0004.23
2022-07-21 09:58:00,,0829.2,4.99,0.00,30.0,27.6,00.0,38.6,31.7,22.1,0000.0,0014.49,0005.60,0004.23
2022-07-21 09:59:00,,0829.2,5.01,0.00,29.9,27.4,00.0,38.6,31.6,23.0,0000.0,0014.68,0005.62,0004.25
